Location: Staunton
(38.1490°N, 79.0720°W)
Time: 00:12:59
(UTC-05:00)

ISS - Pass Details

Date: 15 November 2018
Orbit: 402 x 408 km, 51.6° (Epoch: 17 November)

Event Time Altitude Azimuth Distance (km) Brightness Sun altitude
Exits shadow 05:06:15 55° 129° (SE) 492 -3.2 -21.9°
Drops below altitude 10° 05:08:53 10° 130° (SE) 1,454 -0.2 -21.3°
Sets 05:10:57 0° 130° (SE) 2,311 0.9 -20.9°
